Location: Heisede
(52.2582°N, 9.8523°E)
Time: 05:39:08
(UTC+00:00)

SJ 16-02 - Visible Passes

Search period start: 17 April 2026 00:00
Search period end: 27 April 2026 00:00
Orbit: 582 x 593 km, 75.0° (Epoch: 16 April)

Date Brightness Start Highest point End Pass type
(mag) Time Alt. Az. Time Alt. Az. Time Alt. Az.
17 Apr 3.9 00:09:11 10° WNW 00:09:31 11° WNW 00:09:31 11° WNW visible
17 Apr 3.1 20:59:32 10° N 21:02:41 20° NE 21:03:51 18° ENE visible
17 Apr 1.9 22:36:59 10° NNW 22:40:20 51° NW 22:40:20 51° NW visible
18 Apr 2.7 21:06:39 10° N 21:10:17 26° NE 21:11:09 24° ENE visible
18 Apr 2.3 22:44:28 10° NNW 22:47:38 39° WNW 22:47:38 39° WNW visible
19 Apr 2.2 21:13:50 10° N 21:17:49 36° ENE 21:18:28 34° ENE visible
19 Apr 2.7 22:52:03 10° NW 22:54:58 28° W 22:54:58 28° W visible
20 Apr 3.7 19:45:08 10° NNE 19:46:09 11° NE 19:47:10 10° NE visible
20 Apr 1.6 21:21:07 10° NNW 21:25:18 51° ENE 21:25:48 48° E visible
20 Apr 3.2 22:59:48 10° NW 23:02:18 20° W 23:02:18 20° W visible
21 Apr 3.5 19:51:33 10° N 19:53:50 14° NE 19:56:07 10° ENE visible
21 Apr 1.1 21:28:26 10° NNW 21:32:43 75° ENE 21:33:10 67° ESE visible
21 Apr 3.6 23:07:50 10° WNW 23:09:39 14° W 23:09:39 14° W visible
22 Apr 3.2 19:58:28 10° N 20:01:29 18° NE 20:04:03 12° E visible
22 Apr 1.2 21:35:49 10° NNW 21:40:06 75° WSW 21:40:32 67° SSW visible
23 Apr 2.8 20:05:32 10° N 20:09:04 24° NE 20:11:26 16° E visible
23 Apr 1.7 21:43:17 10° NNW 21:47:25 50° WSW 21:47:56 47° SW visible
24 Apr 2.3 20:12:42 10° N 20:16:36 33° NE 20:18:51 20° ESE visible
24 Apr 2.3 21:50:50 10° NW 21:54:41 33° WSW 21:55:20 32° WSW visible
25 Apr 1.8 20:19:57 10° NNW 20:24:06 47° ENE 20:26:17 24° ESE visible
25 Apr 2.9 21:58:32 10° NW 22:01:54 23° W 22:02:46 22° WSW visible
26 Apr 1.3 20:27:15 10° NNW 20:31:31 69° ENE 20:33:44 27° SE visible
26 Apr 3.4 22:06:28 10° WNW 22:09:04 16° W 22:10:14 14° WSW visible
